STARLINK-1398, 45699

Orbit data source: Space-Track

STARLINK-1398, 45699 is a payload satellite owned by SpaceX/Seattle (US) in LEO that was launched on Thu, 04 Jun 2020 UTC via an FALCON 9 launch vehicle from the Air Force Eastern Test Range (AFETR). Payload-class satellites include a variety of spacecraft equipped with specific instruments for various scientific and technological missions. These include communications satellites like Starlink; space stations such as the ISS; scientific satellites like the Hubble; Earth observation satellites from companies like Planet Labs, Umbra, and HawkEye 360; GPS; miniature CubeSats for education and research; and military/defense satellites.

Loading next visibility...
Identifier
45699, 2020-035AU
Orbit
LEO
Country
Flag of USUS
Related business
Manufacturer
SpaceX/Seattle
Mission
Partially operational Commercial Communications
Bus & Motor
STARLINK, Unknown motor
Mass
260 kg wet, ~248 kg dry
Launch date (UTC)
2020-06-04 (6 years ago)
Launch vehicle
FALCON 9
Launch site
Air Force Eastern Test Range (AFETR)
Object type
Payload
Rocket body
Debris
Shape & HBR
Box + 1 Pan, 10.1 m
Radar Cross Section
13.562 m², Large (>1 m²)

Expand to show TLE details & history
Last TLE update: 10 hours ago

TLE from 10 hours ago
0 STARLINK-1398
1 45699U 20035AU  25352.33335648  .00187908  00000-0  22098-2 0  9991
2 45699  53.0486 344.7501 0004010  28.3269  87.6501 15.60304539  5895
Epoch: 2025-12-18T08:00Z
TLE epoch observation values (Epoch: 2025-12-18T08:00:01.999Z)
Latitude
46.04521°
Longitude
-93.32815°
Altitude
391.564 km
Speed
7.681 km/s
True Right ascension
07h 35m 28s
True Declination
45° 51' 51"
Sunlit
Object was in full shadow at epoch
Visualization orbit readout
Latitude
Unknown
Longitude
Unknown
Altitude
Unknown
Speed
Unknown
Apparent Right ascension
Unknown
Apparent Declination
Unknown
Sunlit
N/A
Visualization observer readout
Local Sidereal Time
17:04:23
Azimuth
Unknown
Elevation
Unknown
Doppler factor
Unknown
Orbital elements
Apogee altitude
389.767 km
Perigee altitude
384.342 km
Semi-major axis
6,765.192 km
Eccentricity
0.0004
Inclination
53.0486°
RAAN
344.7501°
Arg. of periapsis
28.3269°
True anomaly
87.69601°
Mean anomaly
87.6501°
Eccentric anomaly
87.67306°
Mean motion
3.90052 °/min
Orbital period
92.3 mins
BSTAR
0.0022098
Loading maneuver chart data...
Computing Atmospheric mass density...
Loading historical data...
Loading historical data...
Loading historical data...
Loading historical data...
Loading historical data...
Loading historical data...
Loading historical data...

Documentation

Showing up to 5 results
|